NILESAT 301

Last updated on Wed Oct 29 2025 00:02:50 GMT+0000 (Coordinated Universal Time)

1 52817U 22061A 25300.68579645 -.00000046 00000+0 00000+0 0 9993 2 52817 0.0596 40.9779 0002216 198.3037 36.9538 1.00273167 12401
UTC large
Height (km)
Speed (km/s)
/
Latitude / Longitude
Inclination (degrees)
Orbital Period (minutes)
Azimuth
Elevation
Range (km)
Doppler Factor

Next 0 passes for location: London (51.5072 / 0.1276)

Sorry there are no passes over London.